Vertical_Velocity
-1 -1 -3 -2 -3 -3 -0 -5 -1 -1 -2 -1 0 -0 3 3 2 2 2 3 3 -1 1 2 8 7 3 -9 5 12 10 -1 3 -9 -1 1 1 0 1 -2 1 -0 -0 -2 -2 -1 -2
-3 -2 -1 -2 -2 -2 -2 -1 -4 -0 -0 1 1 -0 1 1 -1 -0 0 2 3 2 4 5 4 -4 -4 -8 -8 1 -1 5 -1 2 1 0 -2 1 1 -2 0 1 0 -3 -2 -3 -3
-3 -3 -5 -3 -0 -1 -0 -1 -2 -3 -4 -2 -0 -0 1 0 0 -1 1 3 1 6 3 7 -5 2 -1 -7 -5 1 8 -1 3 3 4 2 2 -5 -6 -0 1 -1 -2 -1 -3 -2 -0
-1 3 -4 -2 -2 1 -1 -0 0 -4 -3 0 -2 0 1 -1 -2 -0 2 1 2 2 3 0 2 5 -4 -1 11 12 6 -3 3 -4 -2 1 1 -1 -0 -1 1 -3 -1 -1 -3 -0 -0
-4 -3 -1 -2 -2 -4 -0 0 -3 -3 -4 -4 -3 -1 -0 -1 -2 -0 1 0 3 0 8 1 8 4 4 9 -5 -4 4 6 5 1 2 -6 -2 -0 -1 1 2 -0 -0 -2 0 -1 -2
-5 -5 -4 -3 1 -2 -1 0 -1 -3 -1 -2 -4 -2 -1 0 -2 -0 1 1 6 -2 -0 3 5 1 2 9 -2 12 -2 3 -0 -4 0 -6 -1 1 -4 -0 0 -1 -1 -2 -2 0 -2
-5 -5 -3 -5 -3 -2 -2 -2 0 1 -2 -3 -2 -2 -1 -0 1 -1 -1 -5 -0 -1 3 1 4 -0 3 2 -1 -2 -1 3 -1 -0 0 2 -2 1 -1 1 -1 -1 -0 -2 0 -1 1
-2 -4 -5 -2 -4 -4 -2 -1 -3 -2 2 -0 1 0 1 -2 -1 0 -2 2 -3 3 2 4 -4 -6 -3 -2 3 -0 1 4 4 2 1 -2 -0 -1 -0 -1 -1 1 -0 1 -0 -2 -2
-1 0 -3 -4 -1 -2 -3 -0 -1 -0 -0 1 2 2 -3 2 -0 -1 4 -1 1 2 1 -2 0 3 1 1 1 3 2 -3 1 -2 -0 1 1 0 0 -1 -0 1 -1 -3 -1 -3 -2
-2 -2 1 -0 -5 0 -4 -3 1 -1 1 -4 -3 -1 2 -1 0 -3 -6 3 2 1 -3 -2 -5 -6 -4 -0 -0 -1 -1 -0 -2 -0 0 -0 -1 -1 -1 -1 -2 0 -2 -1 1 -3 -5
-0 1 2 -2 3 -0 -2 -2 -6 1 0 0 -0 -0 1 4 1 -1 8 1 -3 0 0 2 0 0 4 4 1 -1 -1 -2 2 1 -0 1 -1 0 0 -2 -2 -1 -1 -2 0 -0 -5
-4 -3 -2 4 1 1 4 -0 -0 -3 -4 1 0 2 3 2 4 4 -2 -3 1 2 -1 1 -0 1 -0 -1 -1 1 3 2 1 1 -0 1 0 0 -2 -2 -1 -3 -3 -3 0 -1 -3
-2 -0 0 -5 2 5 3 2 1 2 1 -4 -1 -1 2 1 -1 1 2 4 9 9 1 -3 -4 1 -0 1 1 1 -1 -2 -3 -2 -1 -0 -2 -2 -1 -0 -1 0 -1 -5 -1 -3 -2
-4 -6 -1 2 -4 -4 5 6 3 1 3 2 2 -1 -2 -1 1 1 0 -1 -3 -1 1 3 3 1 0 -0 -1 1 -2 -3 -1 0 -1 0 -2 -1 -1 -1 -1 -2 -3 -0 -11 -8 -7
-2 1 -7 -6 -1 3 -6 -1 3 7 3 3 -2 1 3 1 -2 -2 -2 -4 -3 -2 -1 2 2 3 2 1 -0 -2 -2 0 -1 -1 -1 -3 -0 -1 -1 -1 -2 3 -0 -3 -7 -0 -4
-2 -2 -2 0 -4 -2 4 0 -1 0 1 4 5 -1 2 3 3 0 -2 -4 -4 -4 -3 -3 -2 -0 0 1 -0 0 -2 -0 -1 -1 -2 -0 3 -1 -1 -1 -2 -1 -1 -3 -2 -8 -4
-3 -2 -3 -4 -4 -3 -4 -1 0 -1 0 -1 -2 1 -0 2 1 -1 4 4 1 -3 -6 -4 -2 -3 -4 -4 -3 -3 -3 -1 -1 -1 -1 -1 -1 0 -2 -1 -1 -3 -2 -2 -1 -2 -8
0 1 -3 -4 -2 -4 -3 -0 -1 -1 -0 -3 4 0 -2 -5 -4 4 3 -3 -2 1 3 4 -1 -4 -3 -2 -2 -2 -2 -1 -1 -2 -3 -3 -0 -1 -1 -2 -1 0 -1 -1 -1 1 -2
-0 -0 0 4 0 -1 -1 -4 -3 -3 -3 2 -5 -1 1 1 -1 -3 -4 -1 -0 3 -1 -1 2 2 1 2 -1 -2 -1 -1 -1 -1 0 -0 -1 -1 1 0 0 -1 -3 -2 -2 -1 4
-2 -3 -3 -1 2 3 -2 -1 -2 -2 -1 -5 -2 -2 -3 -1 -0 -2 -1 -3 -3 -0 -4 -1 -1 -4 -1 2 1 0 1 2 2 0 -1 -1 1 1 -1 1 0 -1 -2 -3 -3 -0 -3
2 1 1 -2 -3 -1 1 1 -1 -0 -4 -1 -1 -4 -0 -1 -1 1 2 -3 1 -3 -4 -1 -1 1 0 -1 0 -1 -2 -2 -1 -1 -0 -0 4 -1 -1 -4 -1 1 1 -2 -3 -4 -8
0 3 2 0 -1 0 -0 -1 3 -1 3 -5 -5 0 1 -2 -2 -0 -1 2 -1 -1 -0 -1 -4 -1 -1 -3 -1 -2 0 1 2 0 -2 -3 -5 -0 4 -2 -6 -4 2 0 -1 -0 -2
-1 -1 0 2 0 1 0 -1 -1 -0 -0 1 -3 -5 -1 1 -3 -2 0 -4 1 3 -0 2 1 -2 -4 -1 2 1 -2 -2 0 -0 -1 -1 -3 -3 -1 -0 -0 -3 5 -5 1 -0 -1
-1 1 1 -2 0 1 -1 -2 -1 -1 -0 -1 0 0 -1 -4 2 1 -2 -1 -2 -1 0 3 -1 2 3 1 -2 -3 -1 -1 -2 -1 2 4 0 -3 2 -3 -8 11 5 -2 -5 -1 -0
-0 -0 2 1 -1 -0 0 -1 -2 -2 -1 1 -1 0 0 2 -1 1 1 0 -2 -1 2 -2 -1 -1 2 2 -3 -2 4 0 5 -2 -1 -2 -5 -13 -15 -2 -1 5 -1 -2 -8 13 -2
-3 -4 -1 -1 0 1 -0 -2 1 -2 -2 -2 -2 -4 -3 2 5 -1 -3 -2 1 -3 -1 -1 -3 1 1 -1 -1 -1 -1 3 -2 3 4 2 -0 2 -0 -17 -9 23 -1 -6 -9 1 -4
-1 -1 -2 -2 1 1 1 1 -2 -2 -0 1 -4 -2 -4 1 5 -1 2 -0 1 -1 -1 1 -5 -4 -4 2 -2 -2 -0 -1 -4 -4 -1 -2 -5 -5 -6 -18 -5 34 -2 4 -5 -7 4
-1 -2 -1 -3 -1 -2 -1 1 -2 -2 -1 3 -4 -6 -3 -1 1 4 2 -1 0 -1 -1 0 -2 11 -8 -4 -5 8 -8 1 -7 1 2 -1 -10 8 -10 -12 -14 2 -0 -6 -5 -3 -2
-2 -1 0 1 2 -0 -1 -3 -1 -3 -1 2 2 -1 -8 -8 12 -2 2 -5 -1 1 1 -4 6 1 -10 3 -4 -12 -7 -7 4 -9 5 -18 -3 -7 -1 5 2 0 -6 -3 -2 -4 -9
Height
5716 5709 5700 5692 5685 5680 5676 5675 5674 5673 5676 5677 5679 5680 5683 5686 5687 5690 5694 5699 5706 5714 5721 5730 5738 5743 5754 5759 5769 5777 5788 5794 5803 5812 5817 5824 5830 5836 5841 5847 5850 5853 5857 5859 5861 5862 5864
5720 5713 5705 5697 5690 5684 5681 5678 5679 5679 5680 5682 5683 5685 5688 5691 5692 5695 5699 5705 5712 5719 5725 5733 5739 5747 5757 5766 5770 5778 5786 5794 5806 5813 5818 5823 5828 5833 5839 5843 5845 5849 5852 5855 5856 5857 5858
5725 5718 5710 5703 5696 5689 5685 5683 5683 5684 5686 5687 5688 5690 5692 5695 5697 5701 5706 5711 5717 5724 5731 5738 5746 5754 5759 5770 5773 5778 5786 5795 5801 5810 5815 5821 5824 5831 5836 5838 5841 5845 5848 5850 5851 5851 5851
5730 5724 5717 5709 5702 5697 5691 5689 5689 5690 5691 5692 5693 5695 5698 5701 5704 5709 5713 5716 5722 5728 5734 5741 5747 5752 5760 5766 5771 5780 5787 5796 5802 5809 5814 5817 5820 5826 5831 5834 5837 5841 5842 5844 5846 5846 5846
5735 5730 5723 5716 5710 5704 5700 5696 5695 5694 5695 5696 5698 5700 5703 5707 5711 5715 5720 5723 5728 5733 5736 5741 5749 5757 5763 5769 5776 5781 5790 5795 5801 5807 5810 5815 5818 5823 5826 5830 5834 5837 5839 5839 5841 5841 5841
5739 5734 5729 5724 5718 5713 5709 5707 5704 5703 5702 5703 5705 5707 5710 5715 5718 5722 5726 5731 5737 5741 5744 5748 5755 5763 5768 5773 5780 5787 5789 5793 5799 5805 5810 5813 5818 5823 5826 5828 5831 5833 5834 5835 5836 5838 5837
5745 5738 5734 5731 5726 5722 5718 5716 5714 5713 5714 5713 5714 5716 5718 5722 5725 5729 5733 5738 5744 5748 5751 5756 5762 5769 5773 5779 5785 5787 5793 5798 5801 5806 5810 5815 5818 5820 5823 5825 5827 5829 5829 5831 5831 5832 5832
5754 5746 5740 5736 5734 5730 5727 5725 5723 5722 5722 5723 5723 5724 5726 5728 5732 5735 5739 5742 5746 5752 5756 5760 5766 5772 5777 5781 5784 5788 5793 5799 5802 5805 5809 5812 5814 5818 5821 5822 5823 5824 5825 5825 5826 5826 5826
5762 5756 5749 5743 5739 5738 5735 5732 5731 5730 5730 5731 5731 5732 5732 5734 5737 5740 5744 5747 5750 5754 5761 5766 5770 5774 5779 5783 5786 5790 5795 5798 5801 5805 5807 5810 5813 5815 5817 5819 5820 5820 5820 5820 5821 5820 5819
5770 5763 5758 5753 5747 5743 5742 5741 5739 5738 5737 5738 5739 5740 5740 5739 5743 5745 5750 5753 5755 5760 5764 5770 5773 5777 5780 5783 5786 5790 5794 5798 5801 5804 5806 5809 5811 5812 5813 5814 5815 5816 5816 5815 5814 5813 5812
5776 5772 5765 5760 5757 5753 5748 5746 5746 5745 5745 5745 5746 5747 5748 5749 5750 5752 5755 5757 5762 5766 5769 5773 5775 5778 5780 5785 5789 5790 5793 5796 5799 5801 5805 5807 5807 5808 5809 5810 5810 5810 5809 5808 5807 5805 5804
5782 5778 5774 5768 5764 5761 5758 5755 5752 5752 5752 5752 5753 5754 5755 5757 5758 5759 5760 5764 5767 5771 5772 5775 5777 5780 5783 5784 5787 5790 5793 5796 5797 5799 5800 5802 5803 5804 5804 5804 5804 5804 5802 5801 5799 5798 5797
5788 5784 5780 5776 5772 5768 5765 5763 5762 5759 5758 5758 5758 5759 5761 5762 5763 5764 5766 5767 5769 5771 5774 5778 5779 5780 5782 5785 5787 5789 5792 5794 5795 5796 5797 5798 5799 5799 5799 5799 5798 5797 5795 5793 5792 5790 5787
5794 5790 5786 5783 5779 5775 5773 5771 5768 5767 5765 5764 5764 5763 5765 5766 5767 5768 5770 5772 5773 5774 5775 5776 5777 5779 5781 5783 5784 5786 5789 5790 5791 5792 5793 5793 5795 5794 5794 5793 5793 5790 5789 5786 5783 5782 5778
5796 5795 5793 5789 5785 5782 5780 5776 5775 5774 5772 5771 5770 5770 5768 5769 5770 5771 5772 5773 5773 5775 5776 5777 5779 5780 5781 5782 5784 5786 5787 5788 5788 5789 5790 5789 5789 5788 5788 5787 5787 5785 5783 5781 5776 5774 5771
5797 5797 5795 5793 5791 5788 5785 5784 5781 5779 5778 5776 5775 5775 5774 5773 5773 5773 5774 5774 5774 5775 5776 5777 5778 5779 5780 5781 5782 5783 5783 5783 5783 5783 5783 5784 5784 5783 5782 5782 5781 5779 5777 5775 5772 5768 5765
5797 5795 5796 5796 5794 5793 5790 5788 5787 5785 5782 5781 5780 5778 5778 5777 5777 5777 5776 5775 5775 5775 5776 5776 5777 5777 5778 5778 5778 5778 5778 5779 5778 5778 5778 5778 5779 5779 5777 5776 5774 5773 5771 5768 5766 5764 5761
5795 5795 5794 5794 5795 5794 5792 5791 5789 5787 5786 5783 5782 5782 5781 5780 5779 5778 5778 5777 5776 5776 5775 5775 5775 5775 5775 5775 5775 5775 5775 5775 5775 5775 5775 5774 5774 5773 5772 5770 5769 5767 5764 5763 5761 5760 5756
5793 5793 5793 5792 5791 5791 5792 5790 5789 5788 5786 5786 5785 5783 5782 5781 5780 5781 5780 5779 5778 5777 5776 5775 5774 5773 5772 5772 5772 5772 5772 5772 5771 5771 5771 5770 5769 5768 5767 5767 5764 5762 5760 5757 5755 5753 5751
5789 5789 5789 5789 5789 5788 5787 5787 5787 5786 5786 5786 5784 5784 5782 5780 5779 5779 5778 5779 5778 5777 5776 5775 5775 5773 5771 5770 5769 5769 5768 5768 5767 5767 5766 5765 5764 5763 5762 5761 5759 5757 5754 5752 5750 5748 5745
5783 5784 5785 5785 5785 5784 5784 5784 5783 5783 5783 5782 5782 5781 5780 5779 5779 5777 5775 5774 5774 5774 5774 5772 5771 5770 5770 5769 5768 5767 5765 5764 5762 5761 5760 5759 5759 5757 5754 5753 5752 5750 5747 5744 5743 5739 5739
5775 5777 5778 5779 5780 5780 5780 5779 5778 5778 5778 5779 5777 5776 5777 5776 5775 5773 5771 5771 5769 5768 5767 5767 5766 5765 5763 5762 5763 5760 5759 5758 5757 5756 5754 5753 5752 5750 5750 5744 5742 5743 5741 5736 5734 5731 5728
5766 5767 5769 5770 5771 5772 5772 5772 5771 5771 5771 5770 5771 5771 5770 5770 5769 5767 5766 5765 5763 5762 5762 5759 5758 5758 5757 5755 5755 5753 5752 5750 5749 5748 5745 5744 5741 5739 5739 5738 5732 5734 5735 5728 5724 5721 5719
5754 5757 5758 5760 5761 5762 5762 5762 5762 5762 5762 5762 5761 5761 5762 5762 5760 5759 5759 5758 5755 5755 5754 5753 5751 5749 5749 5746 5744 5744 5744 5743 5741 5739 5737 5735 5731 5728 5726 5725 5719 5724 5722 5720 5715 5713 5708
5744 5744 5745 5746 5747 5749 5750 5751 5751 5751 5751 5750 5750 5750 5749 5750 5753 5751 5748 5748 5747 5745 5745 5744 5742 5740 5737 5736 5734 5732 5732 5731 5730 5728 5728 5726 5723 5718 5714 5713 5708 5710 5710 5707 5703 5703 5699
5731 5731 5732 5733 5733 5734 5735 5737 5737 5739 5738 5738 5738 5737 5737 5737 5740 5740 5739 5737 5736 5735 5733 5733 5731 5728 5726 5723 5722 5718 5719 5719 5715 5714 5716 5714 5711 5707 5703 5699 5693 5695 5700 5693 5689 5687 5688
5715 5716 5717 5717 5718 5720 5720 5721 5722 5723 5723 5724 5724 5725 5724 5722 5724 5724 5725 5725 5724 5722 5721 5719 5718 5714 5714 5712 5709 5707 5706 5704 5701 5701 5701 5698 5696 5693 5689 5683 5680 5688 5681 5678 5675 5676 5668
5695 5698 5700 5701 5702 5702 5704 5705 5705 5706 5706 5707 5707 5707 5708 5709 5710 5708 5708 5709 5708 5707 5706 5705 5702 5702 5700 5696 5695 5693 5689 5689 5687 5687 5686 5686 5683 5680 5676 5669 5667 5667 5667 5664 5657 5652 5649
5676 5679 5681 5684 5685 5686 5686 5686 5687 5689 5689 5691 5691 5691 5692 5692 5695 5695 5695 5693 5691 5690 5689 5686 5685 5682 5680 5680 5678 5675 5673 5670 5670 5669 5671 5670 5667 5663 5659 5656 5654 5652 5648 5642 5637 5635 5631